This is the latest recevied weather packets stored in our database for station/object APPOWX. If no packets are shown the sender has not sent any weather packets the latest 10 day(s).
| Time | Temp. | Humidity | Pressure | Rain* | Wind** | Luminosity | Snow |
|---|---|---|---|---|---|---|---|
| 1778267180 | 20° C | 39% | 1016.9 hPa | 0 mm | - | - | - |
| 1778267120 | 20° C | 34% | 1016.8 hPa | 0 mm | - | - | - |
| 1778267060 | 19.44° C | 35% | 1016.7 hPa | 0 mm | - | - | - |
| 1778267000 | 19.44° C | 34% | 1016.9 hPa | 0 mm | - | - | - |
| 1778266940 | 19.44° C | 35% | 1017 hPa | 0 mm | - | - | - |
| 1778266880 | 19.44° C | 34% | 1017.1 hPa | 0 mm | - | - | - |
| 1778266820 | 19.44° C | 35% | 1017 hPa | 0 mm | - | - | - |
| 1778266760 | 20° C | 33% | 1017 hPa | 0 mm | - | - | - |
| 1778266700 | 20° C | 39% | 1017.2 hPa | 0 mm | - | - | - |
| 1778266640 | 19.44° C | 34% | 1017.1 hPa | 0 mm | - | - | - |
| 1778266579 | 19.44° C | 33% | 1017 hPa | 0 mm | - | - | - |
| 1778266520 | 19.44° C | 36% | 1016.9 hPa | 0 mm | - | - | - |
| 1778266460 | 20° C | 35% | 1016.9 hPa | 0 mm | - | - | - |
| 1778266399 | 20° C | 34% | 1017.2 hPa | 0 mm | - | - | - |
| 1778266340 | 20° C | 31% | 1017.1 hPa | 0 mm | - | - | - |
| 1778266280 | 19.44° C | 38% | 1017.1 hPa | 0 mm | - | - | - |
| 1778266219 | 18.89° C | 41% | 1017.1 hPa | 0 mm | - | - | - |
| 1778266160 | 18.89° C | 40% | 1017.3 hPa | 0 mm | - | - | - |
| 1778266100 | 18.89° C | 36% | 1017 hPa | 0 mm | - | - | - |
| 1778266039 | 18.89° C | 32% | 1017.1 hPa | 0 mm | - | - | - |
| 1778265979 | 18.89° C | 33% | 1017.4 hPa | 0 mm | - | - | - |
| 1778265919 | 19.44° C | 34% | 1017.1 hPa | 0 mm | - | - | - |
| 1778265859 | 20° C | 33% | 1017.2 hPa | 0 mm | - | - | - |
| 1778265799 | 20° C | 37% | 1017.1 hPa | 0 mm | - | - | - |
| 1778265739 | 20° C | 39% | 1017.1 hPa | 0 mm | - | - | - |
* Rain latest hour (hover to see other rain measurements)
** Current wind speed in m/s (hover to see current wind gust speed)